Wind_Speed
69 69 70 69 67 66 68 67 62 59 48 44 41 37 29 17 17 17 16 17 17 14 13 15 15 16 17 17 20 20 23 27 25 26 21 27 31 33 34 36 40 46 51 57
70 72 71 72 71 70 67 67 64 62 57 42 40 38 37 32 25 18 17 17 19 20 17 15 14 15 16 18 18 14 15 22 21 20 19 21 23 27 29 32 32 32 37 46
66 71 73 71 73 76 71 66 64 62 59 55 45 36 38 37 34 27 23 19 20 20 20 20 18 14 11 14 16 15 16 15 18 16 15 18 21 26 29 29 29 28 30 34
65 66 74 71 72 75 77 73 67 63 63 57 52 47 35 38 37 34 30 25 21 21 22 23 22 20 17 15 12 11 10 12 16 17 16 14 17 22 28 27 23 24 22 29
70 69 71 80 75 80 83 81 75 69 62 63 56 49 49 40 36 34 34 30 29 24 22 20 22 24 23 20 18 16 14 12 13 13 17 18 16 18 21 21 29 31 28 24
81 76 73 76 77 79 85 87 80 72 67 62 63 56 48 46 43 37 34 35 30 27 28 27 24 21 22 24 24 23 22 20 19 16 16 16 17 18 21 23 26 29 30 31
84 82 80 83 84 84 87 86 82 75 68 66 62 62 55 47 47 45 40 36 30 31 27 28 29 27 28 25 24 26 26 25 24 24 23 19 17 19 22 24 26 30 32 36
89 90 90 88 88 89 87 89 86 78 71 67 65 63 61 56 48 47 44 44 37 28 30 27 27 28 27 29 31 31 30 28 26 26 25 27 23 22 24 27 26 29 33 37
95 95 99 96 94 92 92 89 93 79 74 69 66 65 64 62 54 50 48 44 46 37 30 30 28 26 27 27 28 28 31 32 32 30 29 29 28 27 29 29 32 34 35 37
102 101 107 103 98 94 99 92 87 84 73 73 71 67 65 63 60 53 49 48 44 45 39 31 29 29 29 26 29 29 28 30 32 34 33 32 32 32 32 33 34 35 43 48
106 107 113 101 99 102 95 88 81 80 75 73 74 72 64 63 60 61 53 49 48 47 45 40 34 31 30 31 30 30 30 30 32 33 33 35 36 37 39 40 40 41 42 44
115 109 116 94 99 99 90 81 73 73 69 68 72 72 67 61 61 61 58 50 52 47 45 41 40 38 35 31 30 32 33 34 34 35 36 38 38 38 40 42 43 45 48 49
116 110 107 94 90 89 82 75 70 64 62 63 69 67 69 64 62 60 56 55 56 54 53 48 43 41 39 39 38 36 31 31 34 36 37 38 40 42 44 45 46 48 50 52
114 106 89 97 79 83 81 76 70 64 64 61 63 66 67 65 63 62 58 58 56 59 60 55 50 48 43 39 40 39 40 40 37 34 35 37 41 43 45 47 48 50 52 55
111 107 92 90 88 86 83 77 73 68 69 64 64 61 62 63 64 63 64 64 61 59 62 59 55 53 50 45 43 43 42 41 43 45 43 42 42 45 45 46 49 52 53 54
107 99 96 89 82 78 78 71 66 68 67 65 67 65 62 60 65 65 66 68 69 66 63 61 63 57 53 51 49 47 45 43 44 44 47 47 47 47 47 48 49 51 53 55
89 88 88 78 73 67 67 65 64 60 62 61 63 63 61 60 64 68 64 69 71 68 68 65 66 58 57 57 57 54 53 48 48 47 47 51 53 53 52 51 53 54 54 55
83 75 73 68 65 62 58 62 60 56 53 56 60 60 60 60 63 65 65 70 72 71 71 70 68 65 63 62 60 60 57 56 54 53 53 55 54 55 55 57 57 56 57 58
77 71 66 64 58 56 55 56 55 55 54 52 56 59 60 60 62 67 67 72 76 76 76 71 71 70 71 66 65 63 63 63 60 60 56 57 57 59 59 59 60 62 62 62
71 63 60 56 55 52 50 51 50 53 55 52 54 58 60 62 66 67 72 74 75 73 68 67 68 70 73 74 71 70 69 67 64 64 64 63 63 62 63 63 64 66 67 68
62 57 53 50 48 50 50 50 49 50 53 54 53 54 59 64 67 69 73 77 76 71 70 74 75 74 73 76 77 75 72 69 69 69 67 64 66 67 69 67 70 70 71 71
59 54 53 47 47 46 47 51 52 53 52 54 55 57 62 66 70 75 78 81 81 80 75 72 73 76 80 80 80 76 75 71 70 70 73 73 73 72 74 72 74 75 74 73
54 51 48 47 46 42 45 49 53 52 52 54 56 59 63 68 72 77 82 83 85 85 85 84 82 81 82 82 80 78 77 78 80 75 73 74 74 73 75 75 76 76 75 75
52 50 46 43 45 45 44 45 50 51 52 54 56 58 61 65 70 75 80 85 88 90 89 86 85 85 83 79 76 75 76 75 73 73 74 74 74 73 71 74 77 77 76 75
49 44 43 42 44 44 43 44 44 46 50 53 56 57 60 66 68 72 78 78 81 81 87 83 82 81 79 78 77 73 74 73 73 72 73 73 72 71 74 76 75 75 74 75
45 44 43 45 49 46 43 40 40 44 46 50 54 57 60 62 65 68 70 73 75 76 81 79 76 73 74 74 71 69 69 69 70 70 68 69 71 72 72 70 70 71 72 73
45 45 46 45 46 46 42 42 43 45 48 51 54 56 57 60 64 64 63 65 68 68 66 67 68 66 63 63 64 64 64 65 64 65 67 66 67 67 67 67 67 67 68 68
Wind_Direction
354 356 357 355 354 353 352 355 358 1 7 6 353 350 345 341 332 320 320 326 330 335 326 306 300 293 286 295 286 290 287 284 284 278 263 260 261 262 257 246 242 242 238 235
351 349 352 351 349 348 347 347 350 351 355 358 358 351 342 338 331 321 320 312 311 317 317 319 316 302 293 284 282 287 302 289 285 285 278 260 254 262 257 256 248 245 237 230
342 343 343 346 344 343 341 341 342 343 347 347 350 352 348 334 330 326 323 315 307 302 303 307 309 313 309 289 284 277 279 280 289 295 279 276 255 259 251 254 248 237 230 229
334 335 334 338 339 339 337 338 335 335 337 340 341 341 341 345 327 323 318 310 303 301 298 298 299 299 300 302 302 304 301 295 285 288 285 286 271 254 250 251 251 247 236 221
328 330 330 329 331 333 333 332 329 329 329 330 332 333 333 333 342 324 318 314 309 303 295 291 291 292 293 296 295 296 300 307 309 312 297 274 281 256 246 241 242 248 239 221
322 325 324 320 322 325 327 327 324 321 325 323 326 325 325 328 327 332 324 314 309 309 302 293 284 281 281 282 285 289 290 290 291 293 299 277 270 264 251 245 238 237 240 231
317 319 319 316 317 318 321 325 319 316 318 320 316 320 317 319 322 322 325 320 308 305 304 304 297 290 289 286 282 278 275 277 281 287 285 284 277 265 258 248 251 240 237 238
313 314 313 310 311 314 316 319 317 312 310 313 313 310 314 311 313 314 318 319 313 300 300 298 301 296 287 284 283 286 288 286 282 279 279 279 279 276 273 272 265 252 250 241
307 311 304 306 309 310 311 313 313 307 307 307 308 306 305 306 305 306 308 311 313 305 289 291 295 296 297 294 285 281 279 279 281 281 279 275 272 267 268 266 271 273 273 261
300 303 303 305 305 305 305 306 306 303 299 301 299 299 299 302 298 298 300 302 307 306 303 288 286 292 290 290 292 292 289 283 280 275 274 273 275 273 268 264 265 264 259 260
301 301 300 303 300 299 298 298 297 299 293 292 292 294 293 291 295 291 293 295 300 302 301 303 299 284 283 287 288 290 290 289 288 285 283 280 276 273 270 268 265 262 261 258
299 301 299 297 292 292 292 292 292 292 288 285 284 286 286 284 289 284 286 289 292 294 297 297 296 299 296 288 281 281 285 289 288 285 284 284 282 280 277 275 273 272 270 268
299 295 296 294 288 287 289 287 285 287 284 280 277 279 281 281 281 281 281 284 287 288 290 291 294 291 293 296 296 293 284 284 288 288 287 287 284 281 280 281 280 277 275 273
292 290 290 292 287 286 284 280 278 281 277 276 272 274 277 277 276 279 270 274 279 284 285 289 290 292 289 290 291 295 296 297 294 290 287 289 287 285 283 280 278 278 279 279
289 288 287 286 286 285 284 278 273 272 270 271 269 271 272 275 273 275 273 270 270 276 279 284 286 286 289 293 292 290 288 291 292 292 291 291 291 289 286 285 286 284 281 278
292 290 288 286 283 281 283 279 275 271 264 258 262 264 265 268 266 267 270 270 270 270 275 279 282 282 287 289 290 293 287 289 287 289 292 290 291 290 289 288 288 287 286 285
290 288 288 286 281 278 278 275 271 268 266 257 256 254 254 257 258 264 266 264 267 268 271 274 277 278 282 283 289 290 293 295 295 294 294 290 288 289 290 290 288 287 285 285
285 285 285 283 280 278 273 268 266 264 263 258 253 250 251 253 256 259 261 261 262 264 268 271 275 277 278 278 282 286 289 292 296 297 298 292 288 287 287 292 292 290 289 288
286 285 283 282 279 276 271 265 263 260 255 250 251 248 245 249 253 254 253 257 259 263 266 271 273 276 278 278 280 284 287 290 295 296 296 298 294 293 291 291 293 294 293 292
286 285 282 280 275 271 268 266 260 254 249 246 247 247 244 246 249 250 250 253 258 262 264 265 270 272 275 278 280 282 284 286 290 294 296 296 296 296 295 296 296 295 295 294
281 280 278 277 274 267 262 260 255 249 245 242 242 244 242 241 244 245 245 247 249 250 256 260 263 268 271 274 276 280 282 287 290 291 291 295 296 298 298 298 298 297 295 294
279 277 276 272 266 263 258 258 254 248 242 238 237 237 237 238 240 241 241 244 248 250 253 258 260 264 268 271 276 279 283 286 287 292 295 295 295 296 296 296 296 295 293 293
276 273 271 270 267 258 256 254 250 247 244 242 240 239 237 235 235 240 242 244 247 248 252 255 259 263 268 273 278 282 285 288 289 290 291 292 291 292 294 295 295 293 292 292
271 269 263 263 260 256 256 253 250 248 248 247 244 242 242 242 241 242 242 244 247 249 251 255 261 265 270 274 279 282 283 285 287 286 287 289 289 291 293 292 291 290 290 292
266 264 260 259 258 255 252 250 249 250 252 252 247 244 243 243 246 247 247 251 254 254 255 259 263 268 273 277 278 281 283 283 284 285 285 287 289 291 291 290 289 290 290 290
259 256 253 254 253 253 251 246 245 244 244 246 245 243 245 247 249 251 253 254 255 257 260 265 270 273 275 276 277 278 280 282 283 285 288 287 288 289 291 290 289 288 288 288
257 255 253 250 251 251 248 246 242 238 236 238 242 246 248 248 249 251 254 255 257 261 265 267 269 272 273 275 276 279 282 284 287 284 286 290 290 287 287 288 288 288 288 289
Height
10615 10611 10605 10599 10592 10585 10577 10569 10563 10560 10555 10550 10543 10538 10535 10532 10530 10525 10521 10518 10515 10511 10509 10507 10504 10503 10501 10499 10497 10496 10492 10490 10489 10489 10491 10489 10487 10486 10488 10489 10493 10497 10503 10509
10610 10605 10604 10598 10591 10585 10580 10572 10565 10558 10554 10551 10545 10541 10533 10530 10525 10522 10519 10515 10512 10509 10507 10504 10500 10498 10496 10494 10493 10492 10488 10484 10482 10482 10483 10482 10480 10480 10480 10481 10482 10485 10488 10495
10611 10604 10597 10598 10592 10585 10580 10574 10567 10560 10553 10547 10544 10539 10534 10528 10522 10517 10512 10511 10508 10505 10503 10500 10497 10494 10491 10489 10486 10485 10483 10481 10477 10477 10477 10478 10477 10476 10475 10473 10477 10480 10484 10488
10611 10604 10593 10593 10590 10584 10577 10574 10567 10560 10552 10545 10539 10535 10530 10527 10522 10515 10511 10507 10503 10500 10497 10494 10492 10491 10489 10486 10483 10480 10478 10476 10474 10472 10471 10472 10473 10473 10473 10473 10472 10475 10478 10482
10603 10601 10592 10581 10582 10578 10571 10566 10561 10557 10551 10543 10536 10531 10525 10520 10517 10514 10508 10503 10498 10495 10492 10490 10488 10485 10483 10482 10480 10478 10475 10473 10471 10469 10466 10466 10466 10467 10469 10470 10471 10470 10475 10477
10589 10590 10585 10576 10576 10575 10568 10561 10554 10549 10546 10539 10531 10525 10521 10515 10510 10507 10506 10498 10494 10490 10486 10482 10481 10479 10478 10476 10475 10473 10472 10471 10468 10466 10464 10461 10459 10461 10462 10463 10466 10467 10469 10472
10575 10575 10575 10561 10560 10561 10560 10556 10545 10541 10537 10532 10526 10520 10514 10509 10504 10500 10496 10495 10488 10484 10480 10476 10472 10472 10469 10467 10465 10465 10464 10463 10463 10461 10460 10459 10458 10456 10456 10458 10459 10459 10462 10464
10562 10559 10555 10550 10547 10547 10547 10543 10536 10529 10526 10522 10517 10511 10507 10500 10497 10492 10488 10484 10484 10479 10474 10470 10466 10463 10461 10458 10457 10455 10454 10454 10454 10454 10453 10452 10451 10450 10450 10449 10451 10454 10453 10454
10543 10547 10529 10530 10533 10528 10529 10531 10523 10517 10510 10510 10505 10500 10496 10492 10487 10483 10479 10475 10473 10472 10467 10463 10460 10456 10454 10451 10449 10448 10446 10444 10444 10444 10445 10444 10444 10442 10441 10441 10441 10441 10442 10446
10521 10529 10509 10516 10515 10510 10505 10509 10506 10501 10496 10492 10490 10486 10483 10481 10476 10473 10470 10465 10462 10460 10457 10455 10452 10449 10446 10443 10440 10439 10438 10437 10434 10433 10433 10435 10434 10433 10433 10432 10432 10432 10433 10433
10504 10509 10490 10504 10492 10484 10484 10484 10483 10480 10478 10474 10470 10469 10470 10467 10464 10460 10459 10456 10452 10448 10447 10443 10441 10439 10437 10435 10432 10429 10427 10425 10425 10424 10422 10422 10421 10421 10422 10422 10421 10421 10421 10420
10469 10478 10457 10489 10461 10451 10455 10459 10460 10458 10457 10454 10449 10449 10449 10451 10448 10447 10445 10443 10440 10438 10434 10433 10429 10427 10425 10423 10422 10419 10417 10415 10413 10412 10411 10410 10409 10408 10407 10407 10407 10408 10408 10407
10440 10446 10434 10446 10437 10425 10428 10429 10431 10434 10433 10432 10424 10427 10428 10430 10431 10432 10430 10428 10426 10425 10422 10420 10418 10416 10415 10412 10410 10408 10407 10404 10402 10400 10398 10397 10397 10396 10394 10392 10391 10390 10389 10388
10408 10404 10420 10399 10411 10399 10399 10402 10403 10408 10407 10405 10406 10404 10407 10411 10411 10413 10413 10413 10413 10410 10407 10406 10406 10402 10402 10401 10399 10396 10393 10393 10390 10387 10385 10384 10382 10380 10379 10377 10377 10375 10374 10371
10366 10363 10386 10381 10372 10369 10364 10367 10374 10382 10381 10384 10384 10387 10387 10389 10391 10392 10393 10395 10396 10396 10392 10392 10392 10389 10388 10387 10385 10384 10380 10379 10377 10375 10372 10370 10368 10366 10364 10361 10359 10357 10355 10353
10334 10330 10331 10340 10345 10339 10330 10336 10345 10349 10351 10357 10359 10362 10367 10371 10371 10372 10373 10375 10378 10378 10377 10378 10375 10373 10375 10372 10370 10368 10366 10364 10363 10361 10359 10355 10352 10351 10349 10347 10345 10341 10337 10334
10311 10301 10295 10304 10305 10311 10308 10305 10309 10315 10320 10328 10333 10335 10339 10345 10349 10349 10352 10357 10358 10359 10358 10359 10357 10360 10361 10357 10353 10353 10351 10349 10347 10344 10344 10340 10337 10333 10331 10329 10327 10324 10320 10317
10273 10275 10272 10273 10276 10278 10281 10280 10282 10287 10293 10299 10305 10311 10315 10322 10326 10328 10332 10335 10336 10337 10337 10340 10342 10343 10343 10339 10338 10336 10335 10333 10331 10329 10327 10324 10320 10316 10312 10309 10306 10303 10299 10294
10244 10246 10249 10247 10250 10250 10251 10253 10258 10263 10267 10274 10280 10285 10291 10297 10302 10305 10310 10313 10316 10317 10319 10322 10322 10321 10320 10321 10321 10319 10318 10315 10313 10312 10310 10307 10303 10299 10295 10291 10286 10281 10276 10272
10217 10222 10222 10224 10224 10226 10228 10230 10235 10240 10246 10252 10258 10264 10270 10275 10278 10283 10288 10292 10295 10296 10299 10301 10301 10302 10302 10301 10301 10300 10300 10299 10297 10295 10290 10288 10285 10281 10276 10271 10266 10261 10256 10251
10195 10200 10199 10202 10203 10204 10205 10208 10211 10215 10222 10228 10235 10242 10247 10252 10256 10260 10266 10270 10272 10275 10279 10280 10281 10282 10283 10282 10281 10281 10281 10281 10279 10276 10273 10269 10264 10260 10256 10251 10246 10241 10235 10229
10172 10175 10176 10180 10180 10183 10184 10186 10189 10193 10198 10205 10211 10217 10222 10227 10232 10236 10240 10245 10249 10253 10255 10257 10259 10260 10260 10261 10262 10263 10263 10262 10259 10255 10252 10248 10244 10239 10234 10230 10225 10219 10212 10207
10152 10154 10157 10158 10159 10161 10163 10164 10167 10174 10181 10187 10192 10197 10199 10201 10206 10211 10216 10221 10226 10230 10233 10236 10238 10240 10241 10244 10244 10244 10244 10242 10239 10236 10232 10228 10223 10219 10214 10209 10203 10197 10190 10183
10132 10135 10137 10139 10140 10141 10145 10149 10152 10157 10164 10169 10174 10178 10182 10185 10188 10192 10195 10199 10205 10211 10216 10219 10221 10225 10227 10227 10227 10227 10224 10222 10220 10216 10212 10208 10203 10198 10193 10187 10181 10174 10167 10161
10115 10119 10122 10123 10122 10124 10129 10132 10138 10145 10148 10151 10154 10159 10165 10169 10172 10175 10176 10185 10191 10196 10198 10204 10207 10209 10210 10210 10208 10206 10205 10202 10199 10195 10191 10186 10182 10177 10170 10164 10159 10152 10146 10138
10098 10101 10104 10105 10103 10107 10114 10118 10123 10126 10130 10134 10138 10142 10148 10153 10158 10160 10165 10169 10173 10178 10182 10186 10188 10190 10191 10190 10188 10186 10184 10182 10178 10175 10170 10165 10159 10153 10148 10142 10136 10129 10122 10115
10081 10082 10084 10087 10089 10092 10097 10100 10105 10109 10112 10115 10121 10127 10132 10137 10140 10145 10150 10153 10158 10162 10167 10168 10169 10170 10169 10168 10168 10167 10165 10163 10159 10154 10147 10142 10137 10131 10125 10119 10113 10107 10100 10093